Time,TemperatureF,DewpointF,PressureIn,WindDirection,WindDirectionDegrees,WindSpeedMPH,WindSpeedGustMPH,Humidity,HourlyPrecipIn,Conditions,Clouds,dailyrainin,SolarRadiationWatts/m^2,SoftwareType,DateUTC
2013-03-28 04:00:00,32.0,30.0,30.03,West,276,8.0,-999.0,92,-99.99,,,-99.99,0.040000,,2013-03-28 08:00:00,
2013-03-28 04:52:00,32.0,30.0,30.03,West,276,8.0,-999.0,92,-99.99,,,-99.99,0.040000,,2013-03-28 08:52:00,
2013-03-28 05:00:00,32.0,30.0,30.03,West,276,8.0,-999.0,92,-99.99,,,-99.99,0.040000,,2013-03-28 09:00:00,
2013-03-28 05:52:00,32.0,30.0,30.03,West,276,8.0,-999.0,92,-99.99,,,-99.99,0.040000,,2013-03-28 09:52:00,
2013-03-28 06:00:00,32.0,30.0,30.04,West,275,8.0,-999.0,92,-99.99,,,-99.99,0.030000,,2013-03-28 10:00:00,
2013-03-28 06:53:00,32.0,30.0,30.04,West,275,8.0,-999.0,92,-99.99,,,-99.99,0.030000,,2013-03-28 10:53:00,
2013-03-28 07:00:00,32.0,31.0,30.05,West,278,7.0,-999.0,95,-99.99,,,-99.99,0.190000,,2013-03-28 11:00:00,
2013-03-28 07:52:00,32.0,31.0,30.05,West,278,7.0,-999.0,95,-99.99,,,-99.99,0.190000,,2013-03-28 11:52:00,
2013-03-28 08:00:00,33.0,31.0,30.08,West,276,7.0,-999.0,93,-99.99,,,-99.99,17.920000,,2013-03-28 12:00:00,
2013-03-28 08:52:00,33.0,31.0,30.08,West,276,7.0,-999.0,93,-99.99,,,-99.99,17.920000,,2013-03-28 12:52:00,
2013-03-28 09:00:00,34.0,32.0,30.09,West,278,7.0,-999.0,92,-99.99,,,-99.99,90.400002,,2013-03-28 13:00:00,
2013-03-28 09:52:00,34.0,32.0,30.09,West,278,7.0,-999.0,92,-99.99,,,-99.99,90.400002,,2013-03-28 13:52:00,
2013-03-28 11:00:00,37.0,33.0,30.12,WNW,282,8.0,-999.0,86,-99.99,,,-99.99,256.500000,,2013-03-28 15:00:00,
2013-03-28 11:53:00,37.0,33.0,30.12,WNW,282,8.0,-999.0,86,-99.99,,,-99.99,256.500000,,2013-03-28 15:53:00,
2013-03-28 12:00:00,40.0,33.0,30.13,WNW,284,8.0,-999.0,77,-99.99,,,-99.99,426.600006,,2013-03-28 16:00:00,
2013-03-28 12:52:00,40.0,33.0,30.13,WNW,284,8.0,-999.0,77,-99.99,,,-99.99,426.600006,,2013-03-28 16:52:00,
2013-03-28 13:00:00,43.0,34.0,30.13,WNW,282,10.0,-999.0,70,-99.99,,,-99.99,662.299988,,2013-03-28 17:00:00,
2013-03-28 13:52:00,43.0,34.0,30.13,WNW,282,10.0,-999.0,70,-99.99,,,-99.99,662.299988,,2013-03-28 17:52:00,
2013-03-28 14:00:00,41.0,31.0,30.14,WNW,284,8.0,-999.0,69,-99.99,,,-99.99,200.100006,,2013-03-28 18:00:00,
2013-03-28 14:52:00,41.0,31.0,30.14,WNW,284,8.0,-999.0,69,-99.99,,,-99.99,200.100006,,2013-03-28 18:52:00,
2013-03-28 15:00:00,42.0,31.0,30.13,WNW,285,7.0,-999.0,64,-99.99,,,-99.99,220.000000,,2013-03-28 19:00:00,
2013-03-28 15:52:00,42.0,31.0,30.13,WNW,285,7.0,-999.0,64,-99.99,,,-99.99,220.000000,,2013-03-28 19:52:00,
2013-03-28 16:00:00,41.0,31.0,30.14,West,281,9.0,-999.0,67,-99.99,,,-99.99,297.000000,,2013-03-28 20:00:00,
2013-03-28 16:53:00,41.0,31.0,30.14,West,281,9.0,-999.0,67,-99.99,,,-99.99,297.000000,,2013-03-28 20:53:00,
2013-03-28 18:00:00,41.0,31.0,30.15,West,269,8.0,-999.0,66,-99.99,,,-99.99,161.000000,,2013-03-28 22:00:00,
2013-03-28 18:53:00,41.0,31.0,30.15,West,269,8.0,-999.0,66,-99.99,,,-99.99,161.000000,,2013-03-28 22:53:00,
2013-03-28 19:53:00,40.0,31.0,30.17,West,273,8.0,-999.0,70,-99.99,,,-99.99,39.470001,,2013-03-28 23:53:00,
2013-03-28 20:00:00,39.0,31.0,30.18,West,270,6.0,-999.0,72,-99.99,,,-99.99,3.920000,,2013-03-29 00:00:00,
2013-03-28 20:52:00,39.0,31.0,30.18,West,270,6.0,-999.0,72,-99.99,,,-99.99,3.920000,,2013-03-29 00:52:00,
2013-03-28 21:00:00,39.0,31.0,30.19,West,266,6.0,-999.0,72,-99.99,,,-99.99,0.000000,,2013-03-29 01:00:00,
2013-03-28 21:53:00,39.0,31.0,30.19,West,266,6.0,-999.0,72,-99.99,,,-99.99,0.000000,,2013-03-29 01:53:00,
2013-03-28 22:00:00,38.0,31.0,30.20,West,263,6.0,-999.0,75,-99.99,,,-99.99,0.010000,,2013-03-29 02:00:00,
2013-03-28 22:53:00,38.0,31.0,30.20,West,263,6.0,-999.0,75,-99.99,,,-99.99,0.010000,,2013-03-29 02:53:00,
2013-03-28 23:00:00,38.0,31.0,30.20,WSW,257,6.0,-999.0,76,-99.99,,,-99.99,0.000000,,2013-03-29 03:00:00,
2013-03-28 23:53:00,38.0,31.0,30.20,WSW,257,6.0,-999.0,76,-99.99,,,-99.99,0.000000,,2013-03-29 03:53:00,